User: anonymous   Login
Location: Unspecified
(0.0000°N, 0.0000°E)
Time: 12:16:52
(UTC+02:00)
Language:

Milstar 3 Cent rocket - Orbit

View from above orbital plane
View from above orbital plane
View from above satellite
View from above satellite

Ground track
Ground track

The orbit data is extracted from the following two-line orbital elements,

1 25725U 99023B   18110.86491263 0.00000000  00000-0  00000-0 0    07
2 25725  28.3110  40.0011 2372613 253.5000 106.4995  9.67247630    01
Epoch (UTC): 20 April 2018 20:45:28
Eccentricity: 0.2372613
inclination: 28.3110°
perigee height: 719 km
apogee height: 5134 km
right ascension of ascending node: 40.0011°
argument of perigee: 253.5000°
revolutions per day: 9.67247630
mean anomaly at epoch: 106.4995°
orbit number at epoch: 0

The dashed part of the orbit path shows where the satellite is in the earth's shadow,  

DLR